Hourly Data Report for May 01, 2012

All times are specified in Local Standard Time (LST). Add 1 hour to adjust for Daylight Saving Time where and when it is observed.

GANDER INTL A
NEWFOUNDLAND

48°56'13.000" N
54°34'05.000" W
151.20 m
8401703
71803
YQX

Download Data

Hourly Data (May 2012)
Hourly Data Report for May 1, 2012
Temp Definition
°C
Dew Point Temp Definition
°C
Rel Hum Definition
%
Wind Dir Definition
10's deg

Wind Spd Definition
km/h
Visibility Definition
km
Stn Press Definition
kPa
Hmdx Definition


Wind Chill Definition


Weather Definition


TIME
00:30 Legend Double Dagger -0.7 -4.2 77 22 5 10.0 100.22   -2 LegendNANA
01:30 Legend Double Dagger 0.1 -4.4 72 24 8 10.0 100.24     LegendNANA
02:30 Legend Double Dagger -1.5 -4.3 81 31 11 10.0 100.29   -5 Mostly Cloudy
03:30 Legend Double Dagger -1.5 -4.7 79 33 7 10.0 100.32   -4 LegendNANA
04:30 Legend Double Dagger -1.2 -4.6 78 33 8 10.0 100.35   -4 LegendNANA
05:30 Legend Double Dagger -1.2 -4.2 80 31 9 10.0 100.41   -4 Mainly Clear
06:30 Legend Double Dagger -0.2 -3.2 80 34 10 10.0 100.50   -4 LegendNANA
07:30 Legend Double Dagger 1.9 -2.8 71 1 7 10.0 100.57     LegendNANA
08:30 Legend Double Dagger 3.0 -2.9 65 34 14 10.0 100.59     Mostly Cloudy
09:30 Legend Double Dagger 3.6 -3.2 61 30 9 10.0 100.56     LegendNANA
10:30 Legend Double Dagger 3.6 -3.7 59 31 8 10.0 100.54     LegendNANA
11:30 Legend Double Dagger 4.2 -4.3 54 34 17 10.0 100.53     Cloudy
12:30 Legend Double Dagger 4.1 -3.7 57 34 5 10.0 100.49     LegendNANA
13:30 Legend Double Dagger 4.1 -3.2 59 33 11 10.0 100.49     LegendNANA
14:30 Legend Double Dagger 4.3 -2.8 60 2 9 10.0 100.47     Cloudy
15:30 Legend Double Dagger 4.0 -2.6 62 2 17 10.0 100.49     LegendNANA
16:30 Legend Double Dagger 3.9 -2.9 61 1 16 10.0 100.50     LegendNANA
17:30 Legend Double Dagger 3.8 -3.7 58 2 14 10.0 100.51     Mostly Cloudy
18:30 Legend Double Dagger 3.0 -4.2 59 1 13 10.0 100.53     LegendNANA
19:30 Legend Double Dagger 1.0 -4.9 65 1 14 10.0 100.56     LegendNANA
20:30 Legend Double Dagger -1.0 -5.4 72 36 11 10.0 100.61   -5 Mainly Clear
21:30 Legend Double Dagger -1.8 -5.3 77 35 11 10.0 100.58   -6 LegendNANA
22:30 Legend Double Dagger -2.7 -4.4 88 34 8 10.0 100.58   -6 LegendNANA
23:30 Legend Double Dagger -2.9 -4.2 91 34 9 10.0 100.57   -6 Mostly Cloudy

Notes on Data Quality.

Legend

  • E = Estimated
  • M = Missing
  • NA = Not Available
  • ‡ = Partner data that is not subject to review by the National Climate Archives
Date modified: